Station CNDO1 - 9063063 - Cleveland, OH Image indicating link to RSS feed of recent meteorological observations for station CNDO1


Conditions at CNDO1 as of
(5:30 pm EDT)
2130 GMT on 07/13/2024:
     

Click on the graph icon in the table below to see a time series plot of the last five days of that observation.

5-day plot - Wind Direction Wind Direction (WDIR):ENE ( 60 deg true )
5-day plot - Wind Speed Wind Speed (WSPD): 9.9 kts
5-day plot - Wind Gust Wind Gust (GST): 12.0 kts
5-day plot - Atmospheric Pressure Atmospheric Pressure (PRES):30.11 in
5-day plot - Water Temperature Water Temperature (WTMP): 72.1 °F
5-day plot - Wind Speed at 10 Meters Wind Speed at 10 meters (WSPD10M): 9.7 kts
5-day plot - Wind Speed at 20 Meters Wind Speed at 20 meters (WSPD20M): 9.7 kts
5-day plot -  Wind Speed, Wind Gust and Atmospheric Pressure Combined plot of Wind Speed, Gust, and Air Pressure
NOS Water Level Observation Network Water Level
Previous observations
TIME
(EDT)
5-day plot - Wind Direction
WDIR
 
5-day plot - Wind Speed
WSPD
kts
5-day plot - Wind Gust
GST
kts
5-day plot - Wave Height
WVHT
ft
5-day plot - Dominant Wave Period
DPD
sec
5-day plot - Average Wave Period
APD
sec
5-day plot - Mean Wave Direction
MWD
 
5-day plot - Atmospheric Pressure
PRES
in
5-day plot - Pressure Tendency
PTDY
in
5-day plot - Air Temperature
ATMP
°F
5-day plot - Water Temperature
WTMP
°F
5-day plot - Dew Point
DEWP
°F
5-day plot - Salinity
SAL
psu
5-day plot - Visibility
VIS
nmi
5-day plot - Tide (above MLLW)
TIDE
ft
2024-07-13 05:24 pmENE 9.9 12.0----30.11-- 72.1----
2024-07-13 05:18 pmENE 8.0 11.1----30.11- 76.8 72.1----
2024-07-13 05:12 pmENE 9.9 12.0----30.11- 76.8 72.1----
2024-07-13 05:06 pmENE 9.9 12.0----30.11- 76.8 72.1----
2024-07-13 05:00 pmENE 9.9 12.0----30.11-0.02 77.2 72.1----
2024-07-13 04:54 pmENE 9.9 12.0----30.11- 77.2 72.1----
2024-07-13 04:48 pmENE 12.0 13.0----30.11- 77.0 72.1----
2024-07-13 04:42 pm NE 11.1 13.0----30.11- 76.5 72.1----
2024-07-13 04:36 pm NE 9.9 12.0----30.11- 76.6 72.1----
2024-07-13 04:30 pm NE 9.9 12.0----30.11-- 72.1----
2024-07-13 04:24 pm NE 9.9 11.1----30.11-- 72.1----
2024-07-13 04:18 pm NE 11.1 13.0----30.11- 76.8 72.1----
2024-07-13 04:12 pmENE 9.9 13.0----30.11- 77.2 72.1----
2024-07-13 04:06 pm NE 9.9 12.0----30.11- 77.0 72.1----
2024-07-13 04:00 pm NE 9.9 12.0----30.11-- 72.1----
2024-07-13 03:54 pm NE 9.9 12.0----30.11-- 72.1----
2024-07-13 03:48 pm NE 9.9 12.0----30.11-- 72.1----
2024-07-13 03:42 pmENE 9.9 11.1----30.11-- 72.1----
2024-07-13 03:36 pmENE 8.9 12.0----30.11-- 72.1----
2024-07-13 03:30 pmENE 9.9 12.0----30.11- 77.7 72.1----
2024-07-13 03:24 pmENE 9.9 12.0----30.11- 77.7 72.1----
2024-07-13 03:18 pm NE 11.1 13.0----30.11- 76.8 72.1----
2024-07-13 03:12 pm NE 11.1 12.0----30.11- 76.6 72.1----
2024-07-13 03:06 pm NE 9.9 12.0----30.12- 77.5 72.1----
2024-07-13 03:00 pm NE 11.1 13.0----30.12-0.01- 72.1----
2024-07-13 02:54 pmENE 9.9 13.0----30.11-- 72.1----
2024-07-13 02:48 pmENE 9.9 13.0----30.11- 77.5 72.1----
2024-07-13 02:42 pm NE 9.9 12.0----30.12- 77.0 72.1----
2024-07-13 02:36 pm NE 9.9 12.0----30.12- 77.0 72.1----
2024-07-13 02:30 pmENE 8.9 11.1----30.11- 76.5 72.1----
2024-07-13 02:24 pmENE 9.9 12.0----30.11- 77.0 72.1----
2024-07-13 02:18 pm NE 11.1 13.0----30.12- 75.9 72.1----
2024-07-13 02:12 pm NE 9.9 12.0----30.12- 76.1 72.1----
2024-07-13 02:06 pm NE 11.1 12.0----30.12- 76.1 72.1----
2024-07-13 02:00 pm NE 9.9 12.0----30.12+0.00 75.9 72.1----
2024-07-13 01:54 pm NE 11.1 12.0----30.12- 76.1 72.1----
2024-07-13 01:48 pm NE 9.9 12.0----30.12-------
2024-07-13 01:42 pm NE 11.1 12.0----30.12-------
2024-07-13 01:36 pm NE 12.0 13.0----30.12-------
2024-07-13 01:30 pm NE 9.9 12.0----30.12- 75.4 72.1----
2024-07-13 01:24 pm NE 8.9 11.1----30.12- 75.9 72.1----
2024-07-13 01:18 pm NE 8.9 9.9----30.12- 75.2 72.1----
2024-07-13 01:12 pm NE 8.0 9.9----30.12- 75.6 72.1----
2024-07-13 01:06 pm NE 8.9 9.9------------
2024-07-13 01:00 pm NE 7.0 8.9------------
2024-07-13 12:54 pm-------30.12-- 72.1----
2024-07-13 12:48 pm NE 8.0 8.9----30.12- 75.7 72.1----
2024-07-13 12:42 pm NE 7.0 8.0----30.12- 75.4 72.1----
2024-07-13 12:36 pm NE 7.0 8.0----30.12- 75.4 72.1----
2024-07-13 12:30 pm NE 7.0 8.0------------
2024-07-13 12:24 pm NE 6.0 8.0------------
2024-07-13 12:18 pm NE 7.0 7.0----30.13-------
2024-07-13 12:12 pm NE 6.0 7.0----30.13-------
2024-07-13 12:06 pmNNE 6.0 7.0----30.13-------
2024-07-13 12:00 pmNNE 6.0 6.0----30.13+0.00 76.3 72.0----
2024-07-13 11:54 amNNE 4.1 6.0----30.13- 76.3 72.1----
2024-07-13 11:48 amNNE 5.1 7.0----30.13- 76.3 72.1----
2024-07-13 11:42 amNNE 5.1 6.0----30.13- 75.9 72.1----
2024-07-13 11:36 amNNE 5.1 5.1----30.13- 75.9 72.1----
2024-07-13 11:30 amNNE 4.1 5.1----30.13- 76.1 72.1----
2024-07-13 11:24 amNNE 4.1 5.1----30.13- 77.4 72.1----
2024-07-13 11:18 am NE 4.1 4.1----30.13- 77.0 72.1----
2024-07-13 11:12 amNNE 4.1 5.1----30.13- 76.8 72.1----
2024-07-13 11:06 amNNE 2.9 5.1----30.13- 77.0 72.1----
2024-07-13 11:00 amNNE 4.1 4.1----30.13+0.00 77.0 72.1----
2024-07-13 10:54 amNNE 4.1 4.1----30.13- 76.3 72.1----
2024-07-13 10:48 am NE 4.1 5.1----30.13- 76.5 72.1----
2024-07-13 10:42 amNNE 2.9 4.1----30.13- 76.5 72.1----
2024-07-13 10:36 amNNE 4.1 5.1----30.13- 75.2 72.1----
2024-07-13 10:30 am N 4.1 5.1----30.13- 75.4 72.1----
2024-07-13 10:24 am N 2.9 4.1----30.13- 76.1 72.1----
2024-07-13 10:18 am N 2.9 2.9----30.13- 75.4 72.1----
2024-07-13 10:12 am N 1.9 2.9----30.13- 75.0 72.1----
2024-07-13 10:06 am N 1.9 2.9----30.13- 76.8 72.1----
2024-07-13 10:00 amNNE 1.9 1.9----30.14+0.01 76.8 72.1----
2024-07-13 09:54 am- 0.0 1.9----30.14- 75.9 72.1----
2024-07-13 09:48 am N 1.9 1.9----30.14- 76.1 72.1----
2024-07-13 09:42 amNNE 1.0 1.9----30.14- 77.2 72.1----
2024-07-13 09:36 amENE 1.0 1.9----30.14- 75.7 72.1----
2024-07-13 09:30 amNNE 1.0 2.9----30.14- 74.7 72.1----
2024-07-13 09:24 am N 2.9 2.9----30.14- 75.9 72.1----
2024-07-13 09:18 am- 0.0 1.9----30.14- 75.9 72.1----
2024-07-13 09:12 am NE 1.9 1.9----30.14- 75.6 72.1----
2024-07-13 09:06 amENE 1.0 1.9----30.14- 74.7 72.1----
2024-07-13 09:00 am NE 1.0 1.9----30.14+0.02 74.5 72.1----
2024-07-13 08:54 amNNE 1.9 1.9----30.14- 74.5 72.1----
2024-07-13 08:48 amENE 1.0 1.9----30.14- 75.4 72.1----
2024-07-13 08:42 am- 0.0 1.9----30.14- 74.7 72.1----
2024-07-13 08:36 am NE 1.0 1.9----30.14- 75.2 72.1----
2024-07-13 08:30 am- 0.0 1.0----30.14- 74.7 72.1----
2024-07-13 08:24 am- 0.0 1.9----30.14- 74.3 72.1----
2024-07-13 08:18 amENE 1.9 1.9----30.14- 73.8 72.1----
2024-07-13 08:12 am- 0.0 1.9----30.14- 73.4 72.1----
2024-07-13 08:06 amENE 1.0 1.9----30.14- 73.9 72.1----
2024-07-13 08:00 am NE 1.9 1.9----30.13+0.02 73.4 72.1----
2024-07-13 07:54 am- 0.0 1.9----30.13- 73.0 72.1----
2024-07-13 07:48 amENE 1.9 1.9----30.13-- 72.1----
2024-07-13 07:42 am- 0.0 1.0----30.13-- 72.1----
2024-07-13 07:36 am- 0.0 1.0----30.13-- 72.1----
2024-07-13 07:30 am- 0.0 1.0----30.13-- 72.1----
2024-07-13 07:24 am- 0.0 0.0----30.13-- 72.1----
2024-07-13 07:18 am- 0.0 1.0----30.13- 70.7 72.1----
2024-07-13 07:12 am- 0.0 1.0----30.13- 70.2 72.1----
2024-07-13 07:06 am- 0.0 1.0----30.13- 69.4 72.1----
2024-07-13 07:00 am- 0.0 1.0----30.12- 68.9 72.1----
2024-07-13 06:54 am- 0.0 1.9----30.13- 68.7 72.1----
2024-07-13 06:48 am- 0.0 1.0----30.12- 68.5 72.1----
2024-07-13 06:42 am- 0.0 1.0----30.12- 68.2 72.1----
2024-07-13 06:36 am- 0.0 1.0----30.12- 68.5 72.1----
2024-07-13 06:30 am- 0.0 1.0----30.12- 68.0 72.1----
2024-07-13 06:24 am- 0.0 1.0----30.12- 68.2 72.1----
2024-07-13 06:18 am- 0.0 1.0----30.12- 68.4 72.1----
2024-07-13 06:12 am- 0.0 1.0----30.12- 68.4 72.1----
2024-07-13 06:06 am- 0.0 1.9----30.12- 68.7 72.1----
2024-07-13 06:00 amSSE 1.0 1.9----30.12+0.03- 72.1----
2024-07-13 05:54 am- 0.0 1.9----30.12-- 72.1----
2024-07-13 05:48 am- 0.0 1.0----30.12-- 72.1----
2024-07-13 05:42 am-------30.11-- 72.1----
2024-07-13 05:36 am- 0.0 1.9----30.11-- 72.1----
2024-07-13 05:30 amNNE 1.0 1.9----30.11- 69.1 72.3----
2024-07-13 05:24 am- 0.0 1.0----30.11- 68.5 72.1----
2024-07-13 05:18 am- 0.0 1.0----30.11- 68.2 72.3----
2024-07-13 05:12 am- 0.0 1.0----30.11- 68.2 72.3----
2024-07-13 05:06 am- 0.0 1.0----30.11- 68.2 72.3----
2024-07-13 05:00 am- 0.0 1.0----30.11+0.01 68.4 72.3----
2024-07-13 04:54 am- 0.0 0.0----30.11- 68.5 72.3----
2024-07-13 04:48 am- 0.0 1.0----30.11- 68.4 72.3----
2024-07-13 04:42 am- 0.0 1.0----30.11- 68.5 72.3----
2024-07-13 04:36 am- 0.0 1.9----30.10- 68.5 72.3----
2024-07-13 04:30 am- 0.0 1.0----30.10- 68.7 72.3----
2024-07-13 04:24 am- 0.0 1.0----30.10- 68.9 72.3----
2024-07-13 04:18 am- 0.0 1.0----30.10- 69.1 72.3----
2024-07-13 04:12 am- 0.0 1.0----30.10- 69.4 72.3----
2024-07-13 04:06 am- 0.0 1.0----30.09- 69.6 72.3----
2024-07-13 04:00 am E 1.0 2.9------ 69.8 72.3----
2024-07-13 03:54 am- 0.0 4.1------ 69.8 72.3----
2024-07-13 03:48 amENE 1.9 2.9----30.09- 70.3 72.3----
2024-07-13 03:42 am- 0.0 1.0----30.09- 71.1 72.3----
2024-07-13 03:36 am- 0.0 1.0----30.09- 71.6 72.3----
2024-07-13 03:30 am- 0.0 1.9----30.09- 71.4 72.3----
2024-07-13 03:24 amSSE 1.0 2.9----30.09- 71.1 72.3----
2024-07-13 03:18 am SE 1.0 1.9----30.09- 69.6 72.3----
2024-07-13 03:12 am SE 1.0 1.0----30.09- 69.6 72.3----
2024-07-13 03:06 amESE 1.0 1.9----30.09- 70.0 72.3----
2024-07-13 03:00 amESE 1.0 1.9----30.09+0.00 69.8 72.3----
2024-07-13 02:54 am SE 1.0 1.9----30.09- 70.0 72.3----
2024-07-13 02:48 am E 1.0 1.9----30.09- 69.6 72.3----
2024-07-13 02:42 am E 1.0 2.9----30.09- 69.3 72.3----
2024-07-13 02:36 am E 1.9 2.9----30.09- 69.4 72.3----
2024-07-13 02:30 am E 1.9 1.9----30.09- 69.4 72.3----
2024-07-13 02:24 amESE 1.0 1.0----30.09- 69.3 72.3----
2024-07-13 02:18 amSSE 1.0 1.0----30.09- 69.8 72.3----
2024-07-13 02:12 amESE 1.0 1.9----30.09- 69.8 72.3----
2024-07-13 02:06 am SE 1.0 1.0----30.09- 70.5 72.3----
2024-07-13 02:00 am SE 1.0 1.9----30.09- 69.4 72.3----
2024-07-13 01:54 am E 1.0 1.9----30.10- 69.4 72.3----
2024-07-13 01:48 amENE 1.0 1.9----30.10- 69.6 72.3----
2024-07-13 01:42 am- 0.0 1.0----30.10- 69.8 72.3----
2024-07-13 01:36 am- 0.0 1.0----30.10- 70.0 72.3----
2024-07-13 01:30 am- 0.0 1.0----30.10- 70.0 72.3----
2024-07-13 01:24 am- 0.0 0.0----30.09- 70.3 72.3----
2024-07-13 01:18 am- 0.0 0.0----30.09- 70.7 72.3----
2024-07-13 01:12 am- 0.0 0.0----30.10- 70.7 72.3----
2024-07-13 01:06 am- 0.0 0.0----30.10- 70.9 72.3----
2024-07-13 01:00 am- 0.0 0.0----30.10+0.01 70.9 72.3----
2024-07-13 12:54 am- 0.0 1.0----30.09- 70.9 72.3----
2024-07-13 12:48 am- 0.0 1.0----30.10- 71.2 72.3----
2024-07-13 12:42 am- 0.0 1.0----30.09- 70.9 72.3----
2024-07-13 12:36 am- 0.0 1.0----30.09- 71.1 72.3----
2024-07-13 12:30 amSSE 1.0 1.0----30.09- 70.9 72.3----
2024-07-13 12:24 am- 0.0 1.0----30.09- 71.2 72.3----
2024-07-13 12:18 am E 1.0 2.9----30.10- 71.1 72.5----
2024-07-13 12:12 am E 1.9 2.9----30.10- 71.1 72.3----
2024-07-13 12:06 am- 0.0 1.0----30.10- 71.2 72.3----
2024-07-13 12:00 am- 0.0 1.0----30.10- 71.4 72.3----
2024-07-12 11:54 pmESE 1.0 1.0----30.10- 72.1 72.3----
2024-07-12 11:48 pm- 0.0 1.0----30.09- 72.5 72.3----
2024-07-12 11:42 pm- 0.0 1.0----30.10- 72.9 72.3----
2024-07-12 11:36 pm- 0.0 1.0----30.09- 72.7 72.3----
2024-07-12 11:30 pmESE 1.0 1.9----30.10- 73.2 72.3----
2024-07-12 11:24 pm- 0.0 1.9----30.10- 73.9 72.3----
2024-07-12 11:18 pm- 0.0 1.9----30.10- 74.3 72.5----
2024-07-12 11:12 pm- 0.0 1.0----30.10- 74.7 72.5----
2024-07-12 11:06 pm- 0.0 1.0----30.10- 74.5 72.5----
2024-07-12 11:00 pm- 0.0 2.9------------
2024-07-12 10:54 pm E 1.9 4.1------------
2024-07-12 10:48 pmENE 2.9 4.1------------
2024-07-12 10:42 pm- 0.0 1.9------------
2024-07-12 10:36 pm E 1.0 5.1------------
2024-07-12 10:30 pm E 4.1 7.0------------
2024-07-12 10:24 pmENE 5.1 7.0----30.09- 74.5 72.5----
2024-07-12 10:18 pmENE 1.9 4.1------------
2024-07-12 10:12 pm- 0.0 4.1------------
2024-07-12 10:06 pm E 4.1 7.0----30.09- 74.8 72.5----
2024-07-12 10:00 pmENE 4.1 5.1----30.09+0.01 74.5 72.5----
2024-07-12 09:54 pm E 4.1 5.1----30.09- 74.5 72.5----
2024-07-12 09:48 pmENE 4.1 6.0------------
2024-07-12 09:42 pmENE 4.1 5.1------------
2024-07-12 09:36 pmENE 2.9 5.1------------
2024-07-12 09:30 pm E 4.1 6.0------------
2024-07-12 09:24 pm E 4.1 7.0------------
2024-07-12 09:18 pmENE 6.0 7.0------------
2024-07-12 09:12 pmENE 6.0 7.0------------
2024-07-12 09:06 pm E 5.1 6.0------------
2024-07-12 09:00 pm E 2.9 6.0------------
2024-07-12 08:54 pmENE 5.1 7.0------------
2024-07-12 08:48 pmENE 6.0 7.0------------
2024-07-12 08:42 pmENE 5.1 7.0------------
2024-07-12 08:36 pmENE 6.0 8.0------------
2024-07-12 08:30 pmENE 7.0 8.0------------
2024-07-12 08:24 pmENE 6.0 7.0------------
2024-07-12 08:18 pmENE 6.0 8.0------------
2024-07-12 08:12 pmENE 6.0 8.0------------
2024-07-12 08:06 pmENE 7.0 8.9------------
2024-07-12 08:00 pmENE 7.0 8.9------------
2024-07-12 07:54 pmENE 8.0 11.1----30.08- 75.7 72.5----
2024-07-12 07:48 pmENE 8.9 11.1----30.08- 75.6 72.5----
2024-07-12 07:42 pmENE 8.9 12.0----30.08- 75.9 72.5----
2024-07-12 07:36 pmENE 9.9 12.0----30.08- 75.4 72.5----
2024-07-12 07:30 pmENE 9.9 13.0----30.08- 75.6 72.5----
2024-07-12 07:24 pmENE 11.1 13.0----30.08- 75.9 72.5----
2024-07-12 07:18 pmENE 9.9 13.0----30.08- 75.7 72.5----
2024-07-12 07:12 pmENE 9.9 13.0----30.08- 75.4 72.5----
2024-07-12 07:06 pmENE 9.9 13.0----30.08- 75.0 72.5----
2024-07-12 07:00 pmENE 11.1 13.0----30.08+0.00 75.4 72.5----
2024-07-12 06:54 pmENE 9.9 12.0----30.08- 75.6 72.5----
2024-07-12 06:48 pmENE 9.9 12.0----30.08-- 72.5----
2024-07-12 06:42 pmENE 11.1 13.0----30.08-- 72.5----
2024-07-12 06:36 pmENE 11.1 12.0----30.08-- 72.5----
2024-07-12 06:30 pmENE 11.1 13.0----30.08- 75.4 72.5----
2024-07-12 06:24 pm NE 12.0 13.0----30.08- 75.9 72.5----
2024-07-12 06:18 pmENE 11.1 12.0----30.08-- 72.5----
2024-07-12 06:12 pm NE 11.1 12.0----30.08-- 72.5----
2024-07-12 06:06 pmENE 9.9 11.1----30.08-- 72.5----
2024-07-12 06:00 pmENE 8.9 11.1----30.07-0.02 75.6 72.5----
2024-07-12 05:54 pmENE 8.9 11.1----30.07- 75.9 72.5----